Location: Asheville, NC
(35.6000°N, 82.5500°W)
Time: 03:46:46
(UTC-05:00)

Tiangong 2 - Pass Details

Date: 10 December 2017
Orbit: 384 x 390 km, 42.8° (Epoch: 20 January)

Event Time Altitude Azimuth Distance (km) Brightness Sun altitude
Exits shadow 05:41:50 62° 116° (ESE) 439 1.5 -21.2°
Drops below altitude 10° 05:44:32 10° 117° (ESE) 1,407 5.0 -20.6°
Sets 05:46:37 0° 118° (ESE) 2,260 6.4 -20.2°
